Location: Alafon
(8.4500°N, 4.2333°E)
Time: 22:10:45
(UTC+00:00)

deb Explorer IX - Pass Details

Date: 31 July 2021
Orbit: 545 x 1091 km, 38.8° (Epoch: 19 September)

Event Time Altitude Azimuth Distance (km) Brightness Sun altitude
Rises 17:50:43 0° 338° (NNW) 3,622 ? 2.3°
Reaches altitude 10° 17:55:02 10° 5° (N) 2,784 ? 1.3°
Maximum altitude 17:58:02 13° 31° (NNE) 2,616 ? 0.6°
Drops below altitude 10° 18:01:07 10° 57° (ENE) 2,889 ? -0.1°
Sets 18:05:45 0° 83° (E) 3,883 ? -1.2°
